This is the latest recevied weather packets stored in our database for station/object VA7SHG-1. If no packets are shown the sender has not sent any weather packets the latest 10 day(s).
| Time | Temp. | Humidity | Pressure | Rain* | Wind** | Luminosity | Snow |
|---|---|---|---|---|---|---|---|
| 1777899318 | 15° C | 63% | 1010.5 hPa | 0 mm | - | 9 W/m² | - |
| 1777898718 | 13.33° C | 65% | 1010.5 hPa | 0 mm | - | 4 W/m² | - |
| 1777894517 | 13.33° C | 74% | 1010.7 hPa | 0 mm | - | 0 W/m² | - |
| 1777892719 | 13.89° C | 73% | 1010.6 hPa | 0 mm | - | 0 W/m² | - |
| 1777891518 | 14.44° C | 72% | 1010.6 hPa | 0 mm | - | 0 W/m² | - |
| 1777888519 | 15.56° C | 66% | 1010.5 hPa | 0 mm | - | 0 W/m² | - |
| 1777886138 | 15° C | 69% | 1010.5 hPa | 0 mm | - | 0 W/m² | - |
| 1777884319 | 16.11° C | 65% | 1010.5 hPa | 0 mm | - | 0 W/m² | - |
| 1777881318 | 17.78° C | 59% | 1010.4 hPa | 0 mm | - | 0 W/m² | - |
| 1777877718 | 18.33° C | 55% | 1010.2 hPa | 0 mm | - | 0 W/m² | - |
| 1777877118 | 18.89° C | 54% | 1010.2 hPa | 0 mm | - | 0 W/m² | - |
| 1777875318 | 18.89° C | 54% | 1010.1 hPa | 0 mm | - | 0 W/m² | - |
| 1777874139 | 19.44° C | 56% | 1010.1 hPa | 0 mm | - | 0 W/m² | - |
| 1777868717 | 21.11° C | 51% | 1010 hPa | 0 mm | - | 0 W/m² | - |
| 1777865718 | 24.44° C | 39% | 1009.6 hPa | 0 mm | - | 3 W/m² | - |
| 1777864517 | 25° C | 39% | 1009.5 hPa | 0 mm | - | 12 W/m² | - |
| 1777863918 | 25.56° C | 38% | 1009.5 hPa | 0 mm | - | 18 W/m² | - |
| 1777855537 | 29.44° C | 32% | 1010 hPa | 0 mm | - | 332 W/m² | - |
| 1777854917 | 30° C | 32% | 1010.1 hPa | 0 mm | - | 354 W/m² | - |
| 1777853717 | 29.44° C | 32% | 1010.2 hPa | 0 mm | - | 410 W/m² | - |
| 1777851918 | 29.44° C | 31% | 1010.4 hPa | 0 mm | - | 512 W/m² | - |
| 1777850716 | 30° C | 29% | 1010.6 hPa | 0 mm | - | 568 W/m² | - |
| 1777850118 | 30° C | 30% | 1010.8 hPa | 0 mm | - | 597 W/m² | - |
| 1777849517 | 30.56° C | 29% | 1010.8 hPa | 0 mm | - | 630 W/m² | - |
| 1777844716 | 28.33° C | 28% | 1012 hPa | 0 mm | - | 861 W/m² | - |
* Rain latest hour (hover to see other rain measurements)
** Current wind speed in m/s (hover to see current wind gust speed)